Year,Month,Day,Hour,Minute,Value (Times are PST for temperature in C)
2014,08,23,00,00,20.90
2014,08,23,00,01,20.80
2014,08,23,00,02,20.80
2014,08,23,00,03,20.70
2014,08,23,00,04,20.70
2014,08,23,00,05,20.60
2014,08,23,00,06,20.50
2014,08,23,00,07,20.50
2014,08,23,00,08,20.40
2014,08,23,00,09,20.40
2014,08,23,00,10,20.40
2014,08,23,00,11,20.40
2014,08,23,00,12,20.40
2014,08,23,00,13,20.40
2014,08,23,00,14,20.40
2014,08,23,00,15,20.30
2014,08,23,00,16,20.20
2014,08,23,00,17,20.00
2014,08,23,00,18,19.90
2014,08,23,00,19,19.70
2014,08,23,00,20,19.60
2014,08,23,00,21,19.40
2014,08,23,00,22,19.30
2014,08,23,00,23,19.10
2014,08,23,00,24,18.90
2014,08,23,00,25,18.70
2014,08,23,00,26,18.50
2014,08,23,00,27,18.40
2014,08,23,00,28,18.20
2014,08,23,00,29,18.10
2014,08,23,00,30,17.80
2014,08,23,00,31,17.70
2014,08,23,00,32,17.50
2014,08,23,00,33,17.40
2014,08,23,00,34,17.30
2014,08,23,00,35,17.20
2014,08,23,00,36,17.10
2014,08,23,00,37,17.00
2014,08,23,00,38,17.00
2014,08,23,00,39,16.90
2014,08,23,00,40,16.80
2014,08,23,00,41,16.70
2014,08,23,00,42,16.60
2014,08,23,00,43,16.60
2014,08,23,00,44,16.60
2014,08,23,00,45,16.70
2014,08,23,00,46,16.70
2014,08,23,00,47,16.70
2014,08,23,00,48,16.80
2014,08,23,00,49,16.80
2014,08,23,00,50,16.80
2014,08,23,00,51,16.80
2014,08,23,00,52,16.80
2014,08,23,00,53,16.80
2014,08,23,00,54,16.80
2014,08,23,00,55,16.70
2014,08,23,00,56,16.70
2014,08,23,00,57,16.70
2014,08,23,00,58,16.60
2014,08,23,00,59,16.50
2014,08,23,01,00,16.50
2014,08,23,01,01,16.40
2014,08,23,01,02,16.30
2014,08,23,01,03,16.30
2014,08,23,01,04,16.20
2014,08,23,01,05,16.10
2014,08,23,01,06,16.10
2014,08,23,01,07,16.00
2014,08,23,01,08,15.90
2014,08,23,01,09,15.80
2014,08,23,01,10,15.80
2014,08,23,01,11,15.70
2014,08,23,01,12,15.70
2014,08,23,01,13,15.60
2014,08,23,01,14,15.60
2014,08,23,01,15,15.60
2014,08,23,01,16,15.60
2014,08,23,01,17,15.50
2014,08,23,01,18,15.50
2014,08,23,01,19,15.50
2014,08,23,01,20,15.50
2014,08,23,01,21,15.50
2014,08,23,01,22,15.50
2014,08,23,01,23,15.60
2014,08,23,01,24,15.70
2014,08,23,01,25,15.80
2014,08,23,01,26,15.90
2014,08,23,01,27,16.10
2014,08,23,01,28,16.20
2014,08,23,01,29,16.30
2014,08,23,01,30,16.30
2014,08,23,01,31,16.30
2014,08,23,01,32,16.40
2014,08,23,01,33,16.50
2014,08,23,01,34,16.60
2014,08,23,01,35,16.80
2014,08,23,01,36,16.90
2014,08,23,01,37,17.00
2014,08,23,01,38,17.20
2014,08,23,01,39,17.30
2014,08,23,01,40,17.40
2014,08,23,01,41,17.50
2014,08,23,01,42,17.60
2014,08,23,01,43,17.70
2014,08,23,01,44,17.70
2014,08,23,01,45,17.80
2014,08,23,01,46,17.80
2014,08,23,01,47,17.80
2014,08,23,01,48,17.80
2014,08,23,01,49,17.70
2014,08,23,01,50,17.60
2014,08,23,01,51,17.50
2014,08,23,01,52,17.40
2014,08,23,01,53,17.30
2014,08,23,01,54,17.20
2014,08,23,01,55,17.10
2014,08,23,01,56,17.00
2014,08,23,01,57,16.90
2014,08,23,01,58,16.80
2014,08,23,01,59,16.60
2014,08,23,02,00,16.50
2014,08,23,02,01,16.50
2014,08,23,02,02,16.40
2014,08,23,02,03,16.40
2014,08,23,02,04,16.40
2014,08,23,02,05,16.40
2014,08,23,02,06,16.40
2014,08,23,02,07,16.30
2014,08,23,02,08,16.30
2014,08,23,02,09,16.20
2014,08,23,02,10,16.00
2014,08,23,02,11,15.90
2014,08,23,02,12,15.80
2014,08,23,02,13,15.70
2014,08,23,02,14,15.60
2014,08,23,02,15,15.60
2014,08,23,02,16,15.50
2014,08,23,02,17,15.40
2014,08,23,02,18,15.30
2014,08,23,02,19,15.20
2014,08,23,02,20,15.20
2014,08,23,02,21,15.10
2014,08,23,02,22,15.10
2014,08,23,02,23,15.20
2014,08,23,02,24,15.20
2014,08,23,02,25,15.20
2014,08,23,02,26,15.20
2014,08,23,02,27,15.20
2014,08,23,02,28,15.30
2014,08,23,02,29,15.30
2014,08,23,02,30,15.30
2014,08,23,02,31,15.30
2014,08,23,02,32,15.30
2014,08,23,02,33,15.30
2014,08,23,02,34,15.30
2014,08,23,02,35,15.30
2014,08,23,02,36,15.30
2014,08,23,02,37,15.30
2014,08,23,02,38,15.20
2014,08,23,02,39,15.20
2014,08,23,02,40,15.20
2014,08,23,02,41,15.20
2014,08,23,02,42,15.10
2014,08,23,02,43,15.20
2014,08,23,02,44,15.20
2014,08,23,02,45,15.30
2014,08,23,02,46,15.40
2014,08,23,02,47,15.40
2014,08,23,02,48,15.40
2014,08,23,02,49,15.40
2014,08,23,02,50,15.40
2014,08,23,02,51,15.30
2014,08,23,02,52,15.20
2014,08,23,02,53,15.10
2014,08,23,02,54,15.10
2014,08,23,02,55,15.10
2014,08,23,02,56,15.00
2014,08,23,02,57,15.00
2014,08,23,02,58,15.00
2014,08,23,02,59,15.00
2014,08,23,03,00,14.90
2014,08,23,03,01,14.90
2014,08,23,03,02,14.90
2014,08,23,03,03,14.80
2014,08,23,03,04,14.80
2014,08,23,03,05,14.80
2014,08,23,03,06,14.80
2014,08,23,03,07,14.70
2014,08,23,03,08,14.70
2014,08,23,03,09,14.70
2014,08,23,03,10,14.70
2014,08,23,03,11,14.80
2014,08,23,03,12,15.00
2014,08,23,03,13,15.10
2014,08,23,03,14,15.20
2014,08,23,03,15,15.20
2014,08,23,03,16,15.30
2014,08,23,03,17,15.30
2014,08,23,03,18,15.20
2014,08,23,03,19,15.20
2014,08,23,03,20,15.10
2014,08,23,03,21,15.10
2014,08,23,03,22,15.10
2014,08,23,03,23,15.00
2014,08,23,03,24,15.00
2014,08,23,03,25,15.00
2014,08,23,03,26,15.00
2014,08,23,03,27,14.90
2014,08,23,03,28,14.90
2014,08,23,03,29,14.90
2014,08,23,03,30,14.90
2014,08,23,03,31,14.90
2014,08,23,03,32,14.90
2014,08,23,03,33,14.90
2014,08,23,03,34,14.90
2014,08,23,03,35,14.90
2014,08,23,03,36,14.80
2014,08,23,03,37,14.80
2014,08,23,03,38,14.80
2014,08,23,03,39,14.80
2014,08,23,03,40,14.90
2014,08,23,03,41,14.90
2014,08,23,03,42,14.90
2014,08,23,03,43,14.80
2014,08,23,03,44,14.80
2014,08,23,03,45,14.70
2014,08,23,03,46,14.70
2014,08,23,03,47,14.60
2014,08,23,03,48,14.70
2014,08,23,03,49,14.80
2014,08,23,03,50,14.80
2014,08,23,03,51,14.80
2014,08,23,03,52,14.80
2014,08,23,03,53,14.80
2014,08,23,03,54,14.70
2014,08,23,03,55,14.80
2014,08,23,03,56,14.80
2014,08,23,03,57,14.80
2014,08,23,03,58,14.80
2014,08,23,03,59,14.80
2014,08,23,04,00,14.80
2014,08,23,04,01,14.90
2014,08,23,04,02,14.90
2014,08,23,04,03,15.00
2014,08,23,04,04,15.10
2014,08,23,04,05,15.30
2014,08,23,04,06,15.50
2014,08,23,04,07,15.60
2014,08,23,04,08,15.70
2014,08,23,04,09,15.80
2014,08,23,04,10,15.80
2014,08,23,04,11,15.80
2014,08,23,04,12,15.80
2014,08,23,04,13,15.90
2014,08,23,04,14,15.90
2014,08,23,04,15,16.00
2014,08,23,04,16,16.00
2014,08,23,04,17,16.10
2014,08,23,04,18,16.20
2014,08,23,04,19,16.20
2014,08,23,04,20,16.30
2014,08,23,04,21,16.20
2014,08,23,04,22,16.20
2014,08,23,04,23,16.10
2014,08,23,04,24,16.00
2014,08,23,04,25,15.90
2014,08,23,04,26,15.90
2014,08,23,04,27,15.80
2014,08,23,04,28,15.70
2014,08,23,04,29,15.70
2014,08,23,04,30,15.60
2014,08,23,04,31,15.60
2014,08,23,04,32,15.50
2014,08,23,04,33,15.40
2014,08,23,04,34,15.30
2014,08,23,04,35,15.20
2014,08,23,04,36,15.20
2014,08,23,04,37,15.10
2014,08,23,04,38,15.00
2014,08,23,04,39,15.00
2014,08,23,04,40,15.00
2014,08,23,04,41,14.90
2014,08,23,04,42,14.90
2014,08,23,04,43,14.80
2014,08,23,04,44,14.80
2014,08,23,04,45,14.70
2014,08,23,04,46,14.70
2014,08,23,04,47,14.70
2014,08,23,04,48,14.60
2014,08,23,04,49,14.60
2014,08,23,04,50,14.60
2014,08,23,04,51,14.60
2014,08,23,04,52,14.60
2014,08,23,04,53,14.60
2014,08,23,04,54,14.60
2014,08,23,04,55,14.60
2014,08,23,04,56,14.50
2014,08,23,04,57,14.50
2014,08,23,04,58,14.50
2014,08,23,04,59,14.50
2014,08,23,05,00,14.50
2014,08,23,05,01,14.50
2014,08,23,05,02,14.50
2014,08,23,05,03,14.50
2014,08,23,05,04,14.60
2014,08,23,05,05,14.50
2014,08,23,05,06,14.50
2014,08,23,05,07,14.50
2014,08,23,05,08,14.50
2014,08,23,05,09,14.50
2014,08,23,05,10,14.60
2014,08,23,05,11,14.60
2014,08,23,05,12,14.60
2014,08,23,05,13,14.60
2014,08,23,05,14,14.70
2014,08,23,05,15,14.60
2014,08,23,05,16,14.60
2014,08,23,05,17,14.60
2014,08,23,05,18,14.60
2014,08,23,05,19,14.60
2014,08,23,05,20,14.60
2014,08,23,05,21,14.70
2014,08,23,05,22,14.70
2014,08,23,05,23,14.70
2014,08,23,05,24,14.80
2014,08,23,05,25,14.80
2014,08,23,05,26,14.80
2014,08,23,05,27,14.80
2014,08,23,05,28,14.70
2014,08,23,05,29,14.70
2014,08,23,05,30,14.60
2014,08,23,05,31,14.50
2014,08,23,05,32,14.50
2014,08,23,05,33,14.40
2014,08,23,05,34,14.30
2014,08,23,05,35,14.30
2014,08,23,05,36,14.30
2014,08,23,05,37,14.30
2014,08,23,05,38,14.30
2014,08,23,05,39,14.30
2014,08,23,05,40,14.20
2014,08,23,05,41,14.10
2014,08,23,05,42,14.10
2014,08,23,05,43,14.10
2014,08,23,05,44,14.00
2014,08,23,05,45,14.00
2014,08,23,05,46,14.00
2014,08,23,05,47,14.00
2014,08,23,05,48,14.10
2014,08,23,05,49,14.10
2014,08,23,05,50,14.10
2014,08,23,05,51,14.20
2014,08,23,05,52,14.20
2014,08,23,05,53,14.20
2014,08,23,05,54,14.20
2014,08,23,05,55,14.10
2014,08,23,05,56,14.10
2014,08,23,05,57,14.00
2014,08,23,05,58,14.00
2014,08,23,05,59,13.90
2014,08,23,06,00,13.90
2014,08,23,06,01,13.90
2014,08,23,06,02,13.90
2014,08,23,06,03,13.90
2014,08,23,06,04,13.80
2014,08,23,06,05,13.80
2014,08,23,06,06,13.70
2014,08,23,06,07,13.70
2014,08,23,06,08,13.60
2014,08,23,06,09,13.60
2014,08,23,06,10,13.50
2014,08,23,06,11,13.50
2014,08,23,06,12,13.40
2014,08,23,06,13,13.40
2014,08,23,06,14,13.40
2014,08,23,06,15,13.40
2014,08,23,06,16,13.40
2014,08,23,06,17,13.30
2014,08,23,06,18,13.30
2014,08,23,06,19,13.30
2014,08,23,06,20,13.20
2014,08,23,06,21,13.20
2014,08,23,06,22,13.10
2014,08,23,06,23,13.10
2014,08,23,06,24,13.10
2014,08,23,06,25,13.10
2014,08,23,06,26,13.10
2014,08,23,06,27,13.10
2014,08,23,06,28,13.10
2014,08,23,06,29,13.10
2014,08,23,06,30,13.20
2014,08,23,06,31,13.10
2014,08,23,06,32,13.10
2014,08,23,06,33,13.10
2014,08,23,06,34,13.00
2014,08,23,06,35,13.00
2014,08,23,06,36,12.90
2014,08,23,06,37,12.90
2014,08,23,06,38,13.00
2014,08,23,06,39,13.00
2014,08,23,06,40,13.00
2014,08,23,06,41,13.00
2014,08,23,06,42,13.00
2014,08,23,06,43,12.90
2014,08,23,06,44,12.90
2014,08,23,06,45,12.90
2014,08,23,06,46,12.90
2014,08,23,06,47,12.90
2014,08,23,06,48,12.90
2014,08,23,06,49,12.80
2014,08,23,06,50,12.80
2014,08,23,06,51,12.80
2014,08,23,06,52,12.80
2014,08,23,06,53,12.80
2014,08,23,06,54,12.80
2014,08,23,06,55,12.80
2014,08,23,06,56,12.90
2014,08,23,06,57,12.90
2014,08,23,06,58,13.00
2014,08,23,06,59,13.00
2014,08,23,07,00,13.10
2014,08,23,07,01,13.20
2014,08,23,07,02,13.20
2014,08,23,07,03,13.20
2014,08,23,07,04,13.20
2014,08,23,07,05,13.20
2014,08,23,07,06,13.20
2014,08,23,07,07,13.20
2014,08,23,07,08,13.20
2014,08,23,07,09,13.20
2014,08,23,07,10,13.20
2014,08,23,07,11,13.20
2014,08,23,07,12,13.30
2014,08,23,07,13,13.30
2014,08,23,07,14,13.30
2014,08,23,07,15,13.30
2014,08,23,07,16,13.30
2014,08,23,07,17,13.30
2014,08,23,07,18,13.30
2014,08,23,07,19,13.30
2014,08,23,07,20,13.20
2014,08,23,07,21,13.20
2014,08,23,07,22,13.20
2014,08,23,07,23,13.20
2014,08,23,07,24,13.20
2014,08,23,07,25,13.20
2014,08,23,07,26,13.20
2014,08,23,07,27,13.30
2014,08,23,07,28,13.30
2014,08,23,07,29,13.30
2014,08,23,07,30,13.30
2014,08,23,07,31,13.40
2014,08,23,07,32,13.40
2014,08,23,07,33,13.40
2014,08,23,07,34,13.40
2014,08,23,07,35,13.40
2014,08,23,07,36,13.50
2014,08,23,07,37,13.50
2014,08,23,07,38,13.50
2014,08,23,07,39,13.50
2014,08,23,07,40,13.60
2014,08,23,07,41,13.60
2014,08,23,07,42,13.60
2014,08,23,07,43,13.60
2014,08,23,07,44,13.60
2014,08,23,07,45,13.60
2014,08,23,07,46,13.60
2014,08,23,07,47,13.70
2014,08,23,07,48,13.70
2014,08,23,07,49,13.70
2014,08,23,07,50,13.70
2014,08,23,07,51,13.70
2014,08,23,07,52,13.70
2014,08,23,07,53,13.60
2014,08,23,07,54,13.60
2014,08,23,07,55,13.60
2014,08,23,07,56,13.60
2014,08,23,07,57,13.60
2014,08,23,07,58,13.60
2014,08,23,07,59,13.60
2014,08,23,08,00,13.60
2014,08,23,08,01,13.60
2014,08,23,08,02,13.60
2014,08,23,08,03,13.60
2014,08,23,08,04,13.60
2014,08,23,08,05,13.60
2014,08,23,08,06,13.70
2014,08,23,08,07,13.70
2014,08,23,08,08,13.80
2014,08,23,08,09,13.80
2014,08,23,08,10,13.80
2014,08,23,08,11,13.90
2014,08,23,08,12,14.00
2014,08,23,08,13,14.00
2014,08,23,08,14,14.10
2014,08,23,08,15,14.20
2014,08,23,08,16,14.30
2014,08,23,08,17,14.40
2014,08,23,08,18,14.60
2014,08,23,08,19,14.70
2014,08,23,08,20,14.80
2014,08,23,08,21,14.90
2014,08,23,08,22,15.10
2014,08,23,08,23,15.30
2014,08,23,08,24,15.50
2014,08,23,08,25,15.70
2014,08,23,08,26,15.90
2014,08,23,08,27,16.10
2014,08,23,08,28,16.30
2014,08,23,08,29,16.50
2014,08,23,08,30,16.60
2014,08,23,08,31,16.80
2014,08,23,08,32,16.90
2014,08,23,08,33,17.10
2014,08,23,08,34,17.20
2014,08,23,08,35,17.40
2014,08,23,08,36,17.50
2014,08,23,08,37,17.70
2014,08,23,08,38,17.90
2014,08,23,08,39,18.10
2014,08,23,08,40,18.20
2014,08,23,08,41,18.40
2014,08,23,08,42,18.50
2014,08,23,08,43,18.70
2014,08,23,08,44,18.80
2014,08,23,08,45,18.90
2014,08,23,08,46,19.00
2014,08,23,08,47,19.00
2014,08,23,08,48,19.10
2014,08,23,08,49,19.20
2014,08,23,08,50,19.30
2014,08,23,08,51,19.30
2014,08,23,08,52,19.30
2014,08,23,08,53,19.30
2014,08,23,08,54,19.40
2014,08,23,08,55,19.40
2014,08,23,08,56,19.40
2014,08,23,08,57,19.50
2014,08,23,08,58,19.50
2014,08,23,08,59,19.60
2014,08,23,09,00,19.60
2014,08,23,09,01,19.60
2014,08,23,09,02,19.70
2014,08,23,09,03,19.70
2014,08,23,09,04,19.70
2014,08,23,09,05,19.70
2014,08,23,09,06,19.60
2014,08,23,09,07,19.60
2014,08,23,09,08,19.60
2014,08,23,09,09,19.60
2014,08,23,09,10,19.60
2014,08,23,09,11,19.50
2014,08,23,09,12,19.60
2014,08,23,09,13,19.60
2014,08,23,09,14,19.60
2014,08,23,09,15,19.60
2014,08,23,09,16,19.60
2014,08,23,09,17,19.50
2014,08,23,09,18,19.50
2014,08,23,09,19,19.50
2014,08,23,09,20,19.40
2014,08,23,09,21,19.30
2014,08,23,09,22,19.30
2014,08,23,09,23,19.30
2014,08,23,09,24,19.30
2014,08,23,09,25,19.20
2014,08,23,09,26,19.20
2014,08,23,09,27,19.10
2014,08,23,09,28,19.10
2014,08,23,09,29,19.10
2014,08,23,09,30,19.10
2014,08,23,09,31,19.10
2014,08,23,09,32,19.10
2014,08,23,09,33,19.00
2014,08,23,09,34,18.90
2014,08,23,09,35,18.90
2014,08,23,09,36,18.90
2014,08,23,09,37,18.80
2014,08,23,09,38,18.80
2014,08,23,09,39,18.80
2014,08,23,09,40,18.80
2014,08,23,09,41,18.80
2014,08,23,09,42,18.80
2014,08,23,09,43,18.80
2014,08,23,09,44,18.80
2014,08,23,09,45,18.90
2014,08,23,09,46,18.80
2014,08,23,09,47,18.80
2014,08,23,09,48,18.80
2014,08,23,09,49,18.90
2014,08,23,09,50,18.90
2014,08,23,09,51,18.90
2014,08,23,09,52,18.90
2014,08,23,09,53,18.90
2014,08,23,09,54,18.90
2014,08,23,09,55,19.00
2014,08,23,09,56,19.00
2014,08,23,09,57,19.10
2014,08,23,09,58,19.10
2014,08,23,09,59,19.10
2014,08,23,10,00,19.20
2014,08,23,10,01,19.20
2014,08,23,10,02,19.30
2014,08,23,10,03,19.30
2014,08,23,10,04,19.40
2014,08,23,10,05,19.40
2014,08,23,10,06,19.40
2014,08,23,10,07,19.40
2014,08,23,10,08,19.50
2014,08,23,10,09,19.50
2014,08,23,10,10,19.50
2014,08,23,10,11,19.40
2014,08,23,10,12,19.40
2014,08,23,10,13,19.40
2014,08,23,10,14,19.40
2014,08,23,10,15,19.40
2014,08,23,10,16,19.40
2014,08,23,10,17,19.40
2014,08,23,10,18,19.40
2014,08,23,10,19,19.50
2014,08,23,10,20,19.50
2014,08,23,10,21,19.50
2014,08,23,10,22,19.40
2014,08,23,10,23,19.30
2014,08,23,10,24,19.30
2014,08,23,10,25,19.30
2014,08,23,10,26,19.20
2014,08,23,10,27,19.20
2014,08,23,10,28,19.20
2014,08,23,10,29,19.20
2014,08,23,10,30,19.20
2014,08,23,10,31,19.20
2014,08,23,10,32,19.30
2014,08,23,10,33,19.30
2014,08,23,10,34,19.30
2014,08,23,10,35,19.30
2014,08,23,10,36,19.30
2014,08,23,10,37,19.30
2014,08,23,10,38,19.30
2014,08,23,10,39,19.30
2014,08,23,10,40,19.30
2014,08,23,10,41,19.30
2014,08,23,10,42,19.20
2014,08,23,10,43,19.20
2014,08,23,10,44,19.20
2014,08,23,10,45,19.20
2014,08,23,10,46,19.10
2014,08,23,10,47,19.20
2014,08,23,10,48,19.20
2014,08,23,10,49,19.20
2014,08,23,10,50,19.30
2014,08,23,10,51,19.30
2014,08,23,10,52,19.30
2014,08,23,10,53,19.30
2014,08,23,10,54,19.30
2014,08,23,10,55,19.20
2014,08,23,10,56,19.20
2014,08,23,10,57,19.20
2014,08,23,10,58,19.20
2014,08,23,10,59,19.20
2014,08,23,11,00,19.20
2014,08,23,11,01,19.30
2014,08,23,11,02,19.30
2014,08,23,11,03,19.40
2014,08,23,11,04,19.40
2014,08,23,11,05,19.40
2014,08,23,11,06,19.50
2014,08,23,11,07,19.60
2014,08,23,11,08,19.60
2014,08,23,11,09,19.70
2014,08,23,11,10,19.70
2014,08,23,11,11,19.80
2014,08,23,11,12,19.80
2014,08,23,11,13,19.70
2014,08,23,11,14,19.70
2014,08,23,11,15,19.80
2014,08,23,11,16,19.80
2014,08,23,11,17,19.80
2014,08,23,11,18,19.80
2014,08,23,11,19,19.80
2014,08,23,11,20,19.90
2014,08,23,11,21,19.90
2014,08,23,11,22,19.90
2014,08,23,11,23,19.90
2014,08,23,11,24,19.90
2014,08,23,11,25,19.90
2014,08,23,11,26,20.00
2014,08,23,11,27,20.00
2014,08,23,11,28,20.10
2014,08,23,11,29,20.10
2014,08,23,11,30,20.10
2014,08,23,11,31,20.10
2014,08,23,11,32,20.20
2014,08,23,11,33,20.20
2014,08,23,11,34,20.20
2014,08,23,11,35,20.30
2014,08,23,11,36,20.40
2014,08,23,11,37,20.40
2014,08,23,11,38,20.40
2014,08,23,11,39,20.40
2014,08,23,11,40,20.40
2014,08,23,11,41,20.40
2014,08,23,11,42,20.40
2014,08,23,11,43,20.40
2014,08,23,11,44,20.40
2014,08,23,11,45,20.30
2014,08,23,11,46,20.20
2014,08,23,11,47,20.10
2014,08,23,11,48,20.00
2014,08,23,11,49,19.90
2014,08,23,11,50,19.90
2014,08,23,11,51,19.90
2014,08,23,11,52,19.90
2014,08,23,11,53,19.90
2014,08,23,11,54,19.90
2014,08,23,11,55,19.80
2014,08,23,11,56,19.80
2014,08,23,11,57,19.80
2014,08,23,11,58,19.80
2014,08,23,11,59,19.70
2014,08,23,12,00,19.70
2014,08,23,12,01,19.80
2014,08,23,12,02,19.80
2014,08,23,12,03,19.80
2014,08,23,12,04,19.80
2014,08,23,12,05,19.70
2014,08,23,12,06,19.70
2014,08,23,12,07,19.70
2014,08,23,12,08,19.70
2014,08,23,12,09,19.80
2014,08,23,12,10,19.80
2014,08,23,12,11,19.80
2014,08,23,12,12,19.80
2014,08,23,12,13,19.70
2014,08,23,12,14,19.70
2014,08,23,12,15,19.60
2014,08,23,12,16,19.70
2014,08,23,12,17,19.80
2014,08,23,12,18,19.80
2014,08,23,12,19,19.80
2014,08,23,12,20,19.80
2014,08,23,12,21,19.80
2014,08,23,12,22,19.80
2014,08,23,12,23,19.80
2014,08,23,12,24,19.70
2014,08,23,12,25,19.70
2014,08,23,12,26,19.60
2014,08,23,12,27,19.60
2014,08,23,12,28,19.60
2014,08,23,12,29,19.50
2014,08,23,12,30,19.60
2014,08,23,12,31,19.60
2014,08,23,12,32,19.60
2014,08,23,12,33,19.60
2014,08,23,12,34,19.60
2014,08,23,12,35,19.60
2014,08,23,12,36,19.70
2014,08,23,12,37,19.80
2014,08,23,12,38,19.80
2014,08,23,12,39,19.90
2014,08,23,12,40,19.90
2014,08,23,12,41,20.00
2014,08,23,12,42,20.10
2014,08,23,12,43,20.10
2014,08,23,12,44,20.10
2014,08,23,12,45,20.10
2014,08,23,12,46,20.10
2014,08,23,12,47,20.10
2014,08,23,12,48,20.10
2014,08,23,12,49,20.20
2014,08,23,12,50,20.20
2014,08,23,12,51,20.20
2014,08,23,12,52,20.20
2014,08,23,12,53,20.20
2014,08,23,12,54,20.30
2014,08,23,12,55,20.40
2014,08,23,12,56,20.50
2014,08,23,12,57,20.60
2014,08,23,12,58,20.60
2014,08,23,12,59,20.60
2014,08,23,13,00,20.60
2014,08,23,13,01,20.60
2014,08,23,13,02,20.50
2014,08,23,13,03,20.40
2014,08,23,13,04,20.40
2014,08,23,13,05,20.30
2014,08,23,13,06,20.30
2014,08,23,13,07,20.30
2014,08,23,13,08,20.30
2014,08,23,13,09,20.30
2014,08,23,13,10,20.30
2014,08,23,13,11,20.30
2014,08,23,13,12,20.30
2014,08,23,13,13,20.30
2014,08,23,13,14,20.40
2014,08,23,13,15,20.40
2014,08,23,13,16,20.40
2014,08,23,13,17,20.50
2014,08,23,13,18,20.60
2014,08,23,13,19,20.60
2014,08,23,13,20,20.70
2014,08,23,13,21,20.70
2014,08,23,13,22,20.70
2014,08,23,13,23,20.70
2014,08,23,13,24,20.80
2014,08,23,13,25,20.90
2014,08,23,13,26,21.00
2014,08,23,13,27,21.00
2014,08,23,13,28,21.00
2014,08,23,13,29,21.10
2014,08,23,13,30,21.10
2014,08,23,13,31,21.10
2014,08,23,13,32,21.10
2014,08,23,13,33,21.10
2014,08,23,13,34,21.00
2014,08,23,13,35,21.00
2014,08,23,13,36,21.00
2014,08,23,13,37,21.00
2014,08,23,13,38,21.10
2014,08,23,13,39,21.20
2014,08,23,13,40,21.30
2014,08,23,13,41,21.40
2014,08,23,13,42,21.50
2014,08,23,13,43,21.50
2014,08,23,13,44,21.60
2014,08,23,13,45,21.70
2014,08,23,13,46,21.70
2014,08,23,13,47,21.70
2014,08,23,13,48,21.60
2014,08,23,13,49,21.60
2014,08,23,13,50,21.50
2014,08,23,13,51,21.50
2014,08,23,13,52,21.50
2014,08,23,13,53,21.50
2014,08,23,13,54,21.50
2014,08,23,13,55,21.50
2014,08,23,13,56,21.50
2014,08,23,13,57,21.50
2014,08,23,13,58,21.60
2014,08,23,13,59,21.60
2014,08,23,14,00,21.60
2014,08,23,14,01,21.70
2014,08,23,14,02,21.70
2014,08,23,14,03,21.70
2014,08,23,14,04,21.80
2014,08,23,14,05,21.80
2014,08,23,14,06,22.00
2014,08,23,14,07,22.00
2014,08,23,14,08,22.10
2014,08,23,14,09,22.20
2014,08,23,14,10,22.20
2014,08,23,14,11,22.30
2014,08,23,14,12,22.30
2014,08,23,14,13,22.40
2014,08,23,14,14,22.40
2014,08,23,14,15,22.50
2014,08,23,14,16,22.50
2014,08,23,14,17,22.50
2014,08,23,14,18,22.50
2014,08,23,14,19,22.60
2014,08,23,14,20,22.70
2014,08,23,14,21,22.70
2014,08,23,14,22,22.80
2014,08,23,14,23,22.80
2014,08,23,14,24,22.90
2014,08,23,14,25,22.90
2014,08,23,14,26,22.90
2014,08,23,14,27,22.90
2014,08,23,14,28,22.90
2014,08,23,14,29,23.00
2014,08,23,14,30,23.00
2014,08,23,14,31,23.00
2014,08,23,14,32,23.10
2014,08,23,14,33,23.10
2014,08,23,14,34,23.10
2014,08,23,14,35,23.10
2014,08,23,14,36,23.00
2014,08,23,14,37,23.00
2014,08,23,14,38,23.00
2014,08,23,14,39,23.00
2014,08,23,14,40,23.10
2014,08,23,14,41,23.20
2014,08,23,14,42,23.20
2014,08,23,14,43,23.20
2014,08,23,14,44,23.20
2014,08,23,14,45,23.20
2014,08,23,14,46,23.20
2014,08,23,14,47,23.20
2014,08,23,14,48,23.20
2014,08,23,14,49,23.20
2014,08,23,14,50,23.30
2014,08,23,14,51,23.20
2014,08,23,14,52,23.20
2014,08,23,14,53,23.30
2014,08,23,14,54,23.30
2014,08,23,14,55,23.30
2014,08,23,14,56,23.30
2014,08,23,14,57,23.30
2014,08,23,14,58,23.40
2014,08,23,14,59,23.40
2014,08,23,15,00,23.40
2014,08,23,15,01,23.40
2014,08,23,15,02,23.40
2014,08,23,15,03,23.30
2014,08,23,15,04,23.30
2014,08,23,15,05,23.30
2014,08,23,15,06,23.30
2014,08,23,15,07,23.40
2014,08,23,15,08,23.40
2014,08,23,15,09,23.40
2014,08,23,15,10,23.40
2014,08,23,15,11,23.50
2014,08,23,15,12,23.50
2014,08,23,15,13,23.50
2014,08,23,15,14,23.40
2014,08,23,15,15,23.40
2014,08,23,15,16,23.40
2014,08,23,15,17,23.40
2014,08,23,15,18,23.30
2014,08,23,15,19,23.40
2014,08,23,15,20,23.40
2014,08,23,15,21,23.40
2014,08,23,15,22,23.50
2014,08,23,15,23,23.50
2014,08,23,15,24,23.50
2014,08,23,15,25,23.40
2014,08,23,15,26,23.30
2014,08,23,15,27,23.30
2014,08,23,15,28,23.30
2014,08,23,15,29,23.30
2014,08,23,15,30,23.40
2014,08,23,15,31,23.40
2014,08,23,15,32,23.40
2014,08,23,15,33,23.30
2014,08,23,15,34,23.30
2014,08,23,15,35,23.30
2014,08,23,15,36,23.40
2014,08,23,15,37,23.40
2014,08,23,15,38,23.30
2014,08,23,15,39,23.30
2014,08,23,15,40,23.30
2014,08,23,15,41,23.30
2014,08,23,15,42,23.30
2014,08,23,15,43,23.30
2014,08,23,15,44,23.30
2014,08,23,15,45,23.30
2014,08,23,15,46,23.30
2014,08,23,15,47,23.30
2014,08,23,15,48,23.30
2014,08,23,15,49,23.30
2014,08,23,15,50,23.40
2014,08,23,15,51,23.40
2014,08,23,15,52,23.50
2014,08,23,15,53,23.50
2014,08,23,15,54,23.60
2014,08,23,15,55,23.60
2014,08,23,15,56,23.70
2014,08,23,15,57,23.70
2014,08,23,15,58,23.70
2014,08,23,15,59,23.70
2014,08,23,16,00,23.70
2014,08,23,16,01,23.70
2014,08,23,16,02,23.70
2014,08,23,16,03,23.80
2014,08,23,16,04,23.80
2014,08,23,16,05,23.80
2014,08,23,16,06,23.80
2014,08,23,16,07,23.70
2014,08,23,16,08,23.70
2014,08,23,16,09,23.60
2014,08,23,16,10,23.60
2014,08,23,16,11,23.60
2014,08,23,16,12,23.60
2014,08,23,16,13,23.60
2014,08,23,16,14,23.60
2014,08,23,16,15,23.60
2014,08,23,16,16,23.60
2014,08,23,16,17,23.60
2014,08,23,16,18,23.60
2014,08,23,16,19,23.60
2014,08,23,16,20,23.60
2014,08,23,16,21,23.60
2014,08,23,16,22,23.60
2014,08,23,16,23,23.60
2014,08,23,16,24,23.70
2014,08,23,16,25,23.70
2014,08,23,16,26,23.80
2014,08,23,16,27,23.90
2014,08,23,16,28,23.90
2014,08,23,16,29,23.90
2014,08,23,16,30,23.90
2014,08,23,16,31,23.90
2014,08,23,16,32,23.90
2014,08,23,16,33,24.00
2014,08,23,16,34,24.00
2014,08,23,16,35,24.10
2014,08,23,16,36,24.10
2014,08,23,16,37,24.20
2014,08,23,16,38,24.20
2014,08,23,16,39,24.20
2014,08,23,16,40,24.20
2014,08,23,16,41,24.20
2014,08,23,16,42,24.20
2014,08,23,16,43,24.20
2014,08,23,16,44,24.10
2014,08,23,16,45,24.10
2014,08,23,16,46,24.00
2014,08,23,16,47,24.00
2014,08,23,16,48,24.00
2014,08,23,16,49,23.90
2014,08,23,16,50,23.90
2014,08,23,16,51,23.90
2014,08,23,16,52,23.90
2014,08,23,16,53,23.90
2014,08,23,16,54,23.90
2014,08,23,16,55,23.90
2014,08,23,16,56,23.90
2014,08,23,16,57,24.00
2014,08,23,16,58,24.00
2014,08,23,16,59,24.10
2014,08,23,17,00,24.10
2014,08,23,17,01,24.10
2014,08,23,17,02,24.10
2014,08,23,17,03,24.20
2014,08,23,17,04,24.20
2014,08,23,17,05,24.30
2014,08,23,17,06,24.30
2014,08,23,17,07,24.30
2014,08,23,17,08,24.30
2014,08,23,17,09,24.30
2014,08,23,17,10,24.30
2014,08,23,17,11,24.30
2014,08,23,17,12,24.30
2014,08,23,17,13,24.30
2014,08,23,17,14,24.30
2014,08,23,17,15,24.40
2014,08,23,17,16,24.40
2014,08,23,17,17,24.50
2014,08,23,17,18,24.50
2014,08,23,17,19,24.60